Location: Unspecified
(0.0000°N, 0.0000°E)
Time: 15:49:51
(UTC+02:00)

OPAL - Visible Passes

Search period start: 19 September 2014 00:00
Search period end: 29 September 2014 00:00
Orbit: 744 x 796 km, 100.2° (Epoch: 18 September)

Date Brightness Start Highest point End Pass type
(mag) Time Alt. Az. Time Alt. Az. Time Alt. Az.
19 Sep 7.4 06:37:34 10° S 06:42:36 64° WSW 06:47:41 10° NNW visible
20 Sep 8.5 06:02:37 10° SSE 06:07:29 46° ENE 06:12:23 10° N visible
21 Sep 10.1 05:29:11 10° ESE 05:32:25 17° ENE 05:35:38 10° NE visible
21 Sep 8.3 07:06:36 10° SSW 07:11:00 30° WSW 07:15:26 10° NW visible
22 Sep 7.4 06:30:46 10° SSE 06:35:53 83° WSW 06:41:03 10° NNW visible
23 Sep 9.0 05:56:08 10° SE 06:00:47 35° ENE 06:05:28 10° N visible
24 Sep 10.5 05:23:27 10° ESE 05:25:43 13° ENE 05:27:58 10° NE visible
24 Sep 8.0 06:59:34 10° S 07:04:17 38° WSW 07:09:03 10° NW visible
25 Sep 7.6 06:24:03 10° SSE 06:29:10 77° ENE 06:34:20 10° N visible
26 Sep 9.5 05:49:45 10° SE 05:54:05 28° ENE 05:58:26 10° NNE visible
27 Sep 7.7 06:52:37 10° S 06:57:34 50° WSW 07:02:34 10° NNW visible
28 Sep 8.1 06:17:24 10° SSE 06:22:28 59° ENE 06:27:33 10° N visible
